This demonstration page uses our WeatherBlox Daily Observations layout. Learn more.

Left ArrowRight Arrow

36.17497, -115.13722

Hourly Observations for April 13, 2016

Temp ( °F °C ) Dew Point ( °F °C ) Humidity (%) Winds ( mph kmh ) Pressure ( in mb ) Visibility ( mi km ) Precip ( " mm )
12:53 am 00:53 Clear 66 18.9 43 6.1 43 43 Calm 30.04 1017 10 16.0934 0 0
1:53 am 01:53 Clear 65 18.3 43 6.1 45 45 Calm 30.04 1017 10 16.0934 0 0
2:53 am 02:53 Clear 61 16.1 46 7.8 58 58 WNW 6 9 30.04 1017 10 16.0934 0 0
3:53 am 03:53 Clear 60 15.6 46 7.8 60 60 NNW 3 6 30.04 1017 10 16.0934 0 0
4:53 am 04:53 Clear 58 14.4 45 7.2 62 62 WNW 3 6 30.04 1017 10 16.0934 0 0
5:53 am 05:53 Clear 58 14.4 45 7.2 62 62 NNW 5 7 30.04 1017 10 16.0934 0 0
6:53 am 06:53 Sunny 58 14.4 46 7.8 65 65 N 3 6 30.06 1018 10 16.0934 0 0
7:53 am 07:53 Sunny 61 16.1 46 7.8 58 58 Calm 30.06 1018 10 16.0934 0 0
8:53 am 08:53 Sunny 65 18.3 45 7.2 49 49 Calm 30.07 1018 10 16.0934 0 0
9:53 am 09:53 Sunny 71 21.7 44 6.7 38 38 SE 12 19 30.05 1018 10 16.0934 0 0
10:53 am 10:53 Sunny 74 23.3 43 6.1 33 33 S 15 24 30.04 1017 10 16.0934 0 0
11:53 am 11:53 Sunny 77 25 42 5.6 29 29 SSE 18 30 30 1016 10 16.0934 0 0
12:53 pm 12:53 Sunny 80 26.7 38 3.3 22 22 SW 17 28 29.97 1015 10 16.0934 0 0
1:53 pm 13:53 Sunny 79 26.1 36 2.2 21 21 SW 14 22 29.94 1014 10 16.0934 0 0
2:53 pm 14:53 Sunny 81 27.2 36 2.2 20 20 SW 18 30 29.92 1013 10 16.0934 0 0
3:53 pm 15:53 Sunny 81 27.2 35 1.7 19 19 SSW 16 26 29.88 1012 10 16.0934 0 0
4:53 pm 16:53 Sunny 81 27.2 34 1.1 18 18 SSW 17 28 29.86 1011 10 16.0934 0 0
5:53 pm 17:53 Sunny 80 26.7 33 0.6 18 18 SSW 16 26 29.85 1011 10 16.0934 0 0
6:53 pm 18:53 Sunny 77 25 36 2.2 23 23 SSW 14 22 29.84 1011 10 16.0934 0 0
7:53 pm 19:53 Clear 76 24.4 38 3.3 25 25 SSW 12 19 29.85 1011 10 16.0934 0 0
8:53 pm 20:53 Clear 75 23.9 39 3.9 27 27 SSW 10 17 29.85 1011 10 16.0934 0 0
9:53 pm 21:53 Clear 74 23.3 39 3.9 28 28 SSW 8 13 29.86 1011 10 16.0934 0 0
10:53 pm 22:53 Clear 72 22.2 38 3.3 29 29 S 8 13 29.85 1011 10 16.0934 0 0
11:53 pm 23:53 Clear 72 22.2 35 1.7 26 26 SSW 14 22 29.83 1010 10 16.0934 0 0

Powered by AerisWeather